Location: Buisson
(44.2787°N, 4.9969°E)
Time: 00:37:30
(UTC+00:00)

Cosmos 1802 Rocket - Pass Details

Date: 18 April 2021
Orbit: 954 x 1012 km, 82.9° (Epoch: 07 May)

Event Time Altitude Azimuth Distance (km) Brightness Sun altitude
Rises 04:16:07 0° 351° (N) 3,707 7.2 -6.8°
Reaches altitude 10° 04:18:40 10° 352° (N) 2,746 6.6 -6.3°
Maximum altitude 04:24:59 88° 82° (E) 978 4.1 -5.3°
Drops below altitude 10° 04:31:09 10° 173° (S) 2,690 6.2 -4.3°
Sets 04:33:37 0° 174° (S) 3,627 6.9 -3.8°
